Regional Weather Roundup
Issued by NWS

Home | Current Version | Previous Version | Text Only | Print | Product List | Glossary On
Versions: 1 2 3 4 5 6 7 8 9 10 11 12 13 14 15 16 17 18 19 20 21 22 23 24 25 26 27 28 29 30 31 32 33 34 35 36 37 38 39 40 41 42 43 44 45 46 47 48 49 50
259
ASUS44 KFWD 252115
RWRTX
NORTH TEXAS HOURLY WEATHER ROUNDUP
NATIONAL WEATHER SERVICE FORT WORTH TX
400 PM CDT SUN JUN 25 2017

NOTE: "FAIR" INDICATES FEW OR NO CLOUDS BELOW 12,000 FEET WITH NO
SIGNIFICANT WEATHER AND/OR OBSTRUCTIONS TO VISIBILITY.

TXZ118-119-252200-
DALLAS/FORT WORTH METROPLEX

CITY           SKY/WX    TMP DP  RH WIND       PRES   REMARKS
DFW AIRPORT    MOSUNNY   87  63  44 E7        30.15F
DALLAS LOVE    MOSUNNY   86  62  44 SE12      30.15F
FTW MEACHAM    MOSUNNY   87  68  52 E10       30.15F HX  90
DAL-EXECUTIVE  MOSUNNY   85  68  56 SE9       30.15F
FTW-ALLIANCE   MOSUNNY   87  66  49 NE10      30.16F
FTW-NAS-JRB    PTSUNNY   87  65  47 E10       30.16F
FTW-SPINKS     MOSUNNY   86  66  51 E8        30.17F
ARLINGTON      PTSUNNY   85  65  51 E10       30.16F
GRAND PRAIRIE  SUNNY     84  64  51 E9        30.18F
ADDISON        SUNNY     84  59  42 N9        30.17F
MESQUITE       MOSUNNY   86  61  42 E5        30.17F
LANCASTER      MOSUNNY   83  68  60 E7        30.17F
$$

TXZ091>094-102>105-117-120-121-131>134-252200-
NORTH CENTRAL TEXAS

CITY           SKY/WX    TMP DP  RH WIND       PRES   REMARKS
SHRMAN/DENISON SUNNY     85  59  41 E7        30.20F
GAINESVILLE    MOSUNNY   83  62  48 SE9       30.20F
BOWIE          MOSUNNY   85  63  47 SE7       30.19F
BRIDGEPORT     SUNNY     85  61  43 E3        30.19F
DECATUR        SUNNY     84  59  42 E9        30.19F
DENTON         SUNNY     85  63  47 E9        30.17F
MCKINNEY       SUNNY     85  64  49 E7        30.17F
BONHAM         MOSUNNY   84  59  42 E13       30.19F
GREENVILLE     SUNNY     88  54  31 NE7       30.18F
ROCKWALL       SUNNY     84  64  49 NE9       30.17F
TERRELL        SUNNY     85  61  44 SE9       30.16F
WAXAHACHIE     MOSUNNY   84  69  60 NE10      30.17F
GRANBURY       CLOUDY    85  67  56 E7        30.17F
$$

TXZ083>090-098>101-113>116-127>130-139>142-154-155-252200-
WESTERN NORTH TEXAS

CITY           SKY/WX    TMP DP  RH WIND       PRES   REMARKS
WICHITA FALLS  PTSUNNY   85  61  44 SE10      30.17F
WF-KICKAPOO    MOSUNNY   85  58  40 E8        30.21F
VERNON         PTSUNNY   83  57  40 SE12      30.19F
ABILENE        CLOUDY    81  65  58 E13       30.20F
ABILENE-DYESS  CLOUDY    84  66  54 E9        30.18F
GRAHAM         MOSUNNY   86  64  47 E3        30.16F
BRECKENRIDGE   PTSUNNY   86  63  45 E10       30.18F HAZE
CISCO          CLOUDY    81  68  65 E10       30.20F
EASTLAND       MOSUNNY   82  67  60 NE7       30.19F
MINERAL WELLS  PTSUNNY   84  66  54 E5        30.16F
STEPHENVILLE   MOSUNNY   85  66  53 E3        30.21F
COMANCHE       PTSUNNY   84  70  61 E7        30.19F
BROWNWOOD      PTSUNNY   82  68  61 NE6       30.18F
COLEMAN        PTSUNNY   85  63  48 E8G26     30.18F
$$

TXZ143>147-156>162-174-175-252200-
CENTRAL TEXAS

CITY           SKY/WX    TMP DP  RH WIND       PRES   REMARKS
WACO           MOSUNNY   85  72  65 NE15      30.14F HX  91
WACO-TSTC      MOSUNNY   84  72  65 NE7       30.15F
WACO-MCGREGOR  MOSUNNY   84  73  69 NE12      30.14F HX  90
HILLSBORO      PTSUNNY   82  72  70 NE9       30.16F
CORSICANA      PTSUNNY   86  70  58 NE10      30.17F HX  90
MEXIA          PTSUNNY   82  70  65 E5        30.15S
HEARNE         PTSUNNY   86  72  62 N6        30.12F HX  92
CAMERON        CLOUDY    87  71  58 E6        30.11F HX  92
TEMPLE         PTSUNNY   79  72  78 CALM      30.15F
KILLEEN        MOSUNNY   84  71  63 NE10      30.14F
KILLEEN-SKYLRK CLOUDY    81  72  74 S9        30.14F
FORT HOOD      PTSUNNY   82  72  69 E24       30.11F
HAMILTON       PTSUNNY   85  68  56 NE9       30.18F
LAMPASAS       MOSUNNY   83  73  70 E6        30.15F
$$

TXZ095>097-106>112-122>126-135>138-148>153-164>167-252200-
EAST TEXAS

CITY           SKY/WX    TMP DP  RH WIND       PRES   REMARKS
PARIS            N/A     85  62  46 E13       30.19F
SULPHUR SPRNGS   N/A     85  56  36 E7G17     30.20F
MOUNT PLEASANT SUNNY     85  61  44 E7        30.19F
GILMER         SUNNY     83  62  50 NE7       30.18F
MINEOLA        SUNNY     82  59  44 E6        30.18F
TYLER          CLOUDY    83  67  58 NE9       30.17F
LONGVIEW       MOSUNNY   83  68  60 E6        30.16F
MARSHALL       SUNNY     82  62  50 E7        30.20F
PALESTINE      PTSUNNY   83  71  65 NE8       30.17F
JACKSONVILLE   PTSUNNY   82  70  67 E7        30.19F
HENDERSON      MOSUNNY   82  68  61 NE8G16    30.18F
CENTER         PTCLDY    85  69  59 NE6       30.18F
NACOGDOCHES    MOSUNNY   82  70  65 MISG      30.14F
LUFKIN         MOSUNNY   86  72  62 NE7       30.13F HX  92
$$

SUPPLEMENTAL OBSERVATIONS (NWS FORT WORTH AREA)

CITY           SKY/WX    TMP DP  RH WIND       PRES   REMARKS
DENISON DAM      N/A     82  57  42 E3          N/A
CADDO GRASSLND   N/A     88  59  37 E3          N/A
PAT MAYSE LAKE   N/A     84  55  37 E7          N/A
GREENVILLE       N/A     84  61  45 E7          N/A
CEDAR HILL       N/A     86  68  54 E3          N/A
LBJ GRASSLAND    N/A    N/A N/A N/A NE6         N/A
POSSUM KINGDOM   N/A     82  64  54 NE6         N/A
GRANBURY         N/A     84  68  58 E8          N/A
COMANCHE         N/A     82  68  61 NE9         N/A
MCGREGOR         N/A     84  70  61 E12         N/A
TEMPLE           N/A     77  73  88 N7          N/A
LAKE LIMESTONE   N/A     84  68  58 NE9         N/A
ATHENS           N/A     82  66  57 E8          N/A
$$

SUPPLEMENTAL OBSERVATIONS (NWS NORMAN AREA)

CITY           SKY/WX    TMP DP  RH WIND       PRES   REMARKS
GOODLETT         N/A     83  60  44 E9        30.19F
CROWELL          N/A     84  63  48 E12       30.19F
KNOX CITY        N/A     82  63  51 E12       30.18F
SEYMOUR          N/A     83  62  48 SE8       30.18F
MILLERS CREEK    N/A     82  63  51 E7          N/A
$$

SUPPLEMENTAL OBSERVATIONS (NWS SAN ANGELO AREA)

CITY           SKY/WX    TMP DP  RH WIND       PRES   REMARKS
WEINERT          N/A     82  65  55 E10       30.19F
HASKELL          N/A     82  63  52 E8        30.19F
THROCKMORTON     N/A     84  69  60 NE7       30.19F
STAMFORD         N/A     85  65  50 E12       30.19F
CLYDE            N/A     80  66  60 E10       30.22F
HAMBY            N/A     82  64  54 SE7G16      N/A
IVIE RESERVOIR   N/A     86  64  48 NE9         N/A
COLORADO BEND    N/A     84  68  58 SE9         N/A
$$

SUPPLEMENTAL OBSERVATIONS (NWS SHREVEPORT AREA)

CITY           SKY/WX    TMP DP  RH WIND       PRES   REMARKS
CLARKSVILLE      N/A     88  57  35 E6          N/A
TEXARKANA        N/A    N/A N/A N/A E2          N/A
LINDEN           N/A     82  55  39 E7          N/A
GILMER           N/A     84  61  45 NE6         N/A
HENDERSON        N/A     82  66  57 E8          N/A
LUFKIN           N/A     84  70  61 MISG        N/A
N SABINE NF      N/A     84  68  58 MISG        N/A
S SABINE NF      N/A     81  68  65 N5          N/A
$$

SUPPLEMENTAL OBSERVATIONS ARE A COLLECTION OF AUTOMATED INSTRUMENTS
THAT ARE MAINTAINED BY A VARIETY OF FEDERAL AND STATE AGENCIES.
CERTAIN ELEMENTS...SUCH AS HUMIDITY VALUES AND SUSTAINED WIND
SPEEDS...MAY BE APPROXIMATED.





USA.gov is the U.S. government's official web portal to all federal, state and local government web resources and services.